Location: *
(37.5724°S, 58.0067°E)
Time: 02:44:01
(UTC+00:00)

CZ-3A R/B - Pass Details

Date: 21 January 2021
Orbit: 1323 x 30224 km, 55.5° (Epoch: 06 March)

Event Time Altitude Azimuth Distance (km) Brightness Sun altitude
Rises 21:09:03 0° 320° (NW) 28,547 10.0 -31.6°
Reaches altitude 10° 22:09:02 10° 308° (NW) 18,724 9.0 -27.2°
Maximum altitude 23:05:15 60° 222° (SW) 3,343 5.7 -20.7°
Drops below altitude 10° 23:14:30 10° 140° (SE) 3,938 7.4 -19.5°
Sets 23:16:35 0° 134° (SE) 4,634 8.2 -19.2°
